Bournemouth, United Kingdom

12:09 AM GMT on February 22, 2017 (GMT +0000)
Bournemouth

Weather History for EGHH - August, 2013

Change the Weather History Date:

Wednesday, August 7, 2013

  Actual Average Record
Temperature  
Mean Temperature 60 °F -  
Max Temperature 75 °F 69 °F 86 °F (2003)
Min Temperature 46 °F 51 °F 44 °F (2007)
Degree Days  
Heating Degree Days 4    
Growing Degree Days 10 (Base 50)    
Moisture  
Dew Point 51 °F    
Average Humidity 66    
Maximum Humidity 100    
Minimum Humidity 28    
Precipitation  
Precipitation 0.00 in 0.08 in - ()
Sea Level Pressure  
Sea Level Pressure 29.94 in    
Wind  
Wind Speed 6 mph ()    
Max Wind Speed 104 mph    
Max Gust Speed -    
Visibility 8.9 miles    
Events      
Averages and records for this station are not official NWS values.
T = Trace of Precipitation, MM = Missing Value Source: Averaged Metar Reports

Daily Weather History Graph

Daily Weather History Graph

Search for Another Location

Airport or City:

Trip Planner

Search our weather history database for the weather conditions in past years. The results will help you decide how hot, cold, wet, or windy it might be!

Date:

Astronomy

Aug. 07, 2013 Rise Set
Actual Time 5:42 AM BST 8:42 PM BST
Civil Twilight 5:04 AM BST 9:20 PM BST
Nautical Twilight 4:14 AM BST 10:10 PM BST
Astronomical Twilight 3:11 AM BST 11:12 PM BST
Moon 6:28 AM BST (8/7) 8:27 PM BST (8/7)
Length of Visible Light 16h 16m
Length of Day
14h 59m
New Moon, 0% of the Moon is Illuminated
Aug 7
New Moon
Aug 14
First Quarter
Aug 21
Full
Aug 28
Last Quarter
Sep 5
New

Hourly Weather History & Observations

Time (BST) Temp. Dew Point Humidity Pressure Visibility Wind Dir Wind Speed Gust Speed Precip Events Conditions
12:50 AM 50 °F 49 °F 94% 29.95 in 11 mi Calm Calm - -   Scattered Clouds
1:20 AM 48.2 °F 46.4 °F 93% 29.92 in - NNE 1.2 mph - N/A   Clear
3:50 AM 48 °F 47 °F 96% 29.93 in 7 mi North 4.6 mph - -   Mostly Cloudy
4:50 AM 48.2 °F 48.2 °F 100% 29.92 in - North 1.2 mph - N/A   Clear
5:20 AM 50.0 °F 48.2 °F 94% 29.92 in - North 1.2 mph - N/A   Clear
5:50 AM 50.0 °F 48.2 °F 94% 29.89 in - North 1.2 mph - N/A   Clear
6:20 AM 50.0 °F 50.0 °F 100% 29.89 in - North 1.2 mph - N/A   Clear
6:50 AM 52 °F 51 °F 95% 29.91 in 6 mi North 4.6 mph - -  
6:50 AM 51.8 °F 51.8 °F 100% 29.89 in - North 4.6 mph - N/A   Clear
7:20 AM 53.6 °F 51.8 °F 94% 29.89 in - NNW 3.5 mph - N/A   Clear
7:50 AM 55.4 °F 53.6 °F 94% 29.89 in - North 3.5 mph - N/A   Clear
8:20 AM 57.2 °F 53.6 °F 88% 29.89 in - NNE 4.6 mph - N/A   Clear
8:50 AM 59.0 °F 53.6 °F 82% 29.92 in - NE 5.8 mph - N/A   Clear
9:20 AM 60.8 °F 53.6 °F 77% 29.92 in - NNE 4.6 mph - N/A   Clear
9:50 AM 64 °F 54 °F 61% 29.92 in 12 mi NE 6.9 mph - -   Partly Cloudy
9:50 AM 64.4 °F 53.6 °F 68% 29.92 in - NNE 8.1 mph - N/A   Clear
10:20 AM 66.2 °F 53.6 °F 64% 29.92 in - NE 6.9 mph - N/A   Clear
10:50 AM 66.2 °F 53.6 °F 64% 29.92 in - NE 8.1 mph - N/A   Clear
11:20 AM 68.0 °F 53.6 °F 60% 29.92 in - ENE 11.5 mph - N/A   Clear
11:50 AM 69.8 °F 53.6 °F 56% 29.92 in - ENE 10.4 mph - N/A   Clear
12:20 PM 69.8 °F 50.0 °F 49% 29.92 in - ENE 11.5 mph - N/A   Clear
12:50 PM 71 °F 52 °F 40% 29.93 in 14 mi ENE 10.4 mph - -   Scattered Clouds
12:50 PM 69.8 °F 50.0 °F 49% 29.92 in - ENE 10.4 mph - N/A   Clear
1:20 PM 71.6 °F 51.8 °F 50% 29.92 in - ENE 11.5 mph - N/A   Clear
1:50 PM 71.6 °F 50.0 °F 46% 29.92 in 6.2 mi NNE 11.5 mph - N/A   Partly Cloudy
2:20 PM 73.4 °F 50.0 °F 44% 29.92 in 6.2 mi NE 103.6 mph - N/A   Partly Cloudy
2:50 PM 75.2 °F 50.0 °F 41% 29.92 in 6.2 mi NE 8.1 mph - N/A   Partly Cloudy
3:20 PM 73.4 °F 48.2 °F 41% 29.92 in 6.2 mi ENE 10.4 mph - N/A   Partly Cloudy
3:50 PM 74 °F 48 °F 28% 29.94 in 14 mi ENE 8.1 mph - -   Scattered Clouds
3:50 PM 73.4 °F 48.2 °F 41% 29.92 in 6.2 mi East 8.1 mph - N/A   Partly Cloudy
4:20 PM 73.4 °F 48.2 °F 41% 29.92 in 6.2 mi NE 10.4 mph - N/A   Partly Cloudy
4:50 PM 73.4 °F 48.2 °F 41% 29.92 in - NE 6.9 mph - N/A   Clear
5:20 PM 73.4 °F 48.2 °F 41% 29.95 in - NNE 10.4 mph - N/A   Clear
5:50 PM 71.6 °F 48.2 °F 43% 29.95 in - NE 9.2 mph - N/A   Clear
6:20 PM 71.6 °F 48.2 °F 43% 29.95 in - North 9.2 mph - N/A   Clear
6:50 PM 71 °F 49 °F 34% 29.96 in 14 mi NNE 8.1 mph - -   Scattered Clouds
6:50 PM 71.6 °F 48.2 °F 43% 29.95 in - NNE 8.1 mph - N/A   Clear
7:20 PM 68.0 °F 51.8 °F 56% 29.98 in - SSE 10.4 mph - N/A   Clear
7:50 PM 68.0 °F 51.8 °F 56% 29.98 in - South 6.9 mph - N/A   Clear
8:20 PM 68.0 °F 51.8 °F 56% 29.98 in - South 4.6 mph - N/A   Clear
8:50 PM 60.8 °F 53.6 °F 77% 30.01 in - SE 2.3 mph - N/A   Clear
9:50 PM 59 °F 53 °F 75% 30.02 in 9 mi East 1.2 mph - -  
9:50 PM 59.0 °F 53.6 °F 82% 30.01 in - SSE 1.2 mph - N/A   Clear
10:20 PM 59.0 °F 53.6 °F 82% 30.01 in - SSE 1.2 mph - N/A   Clear
10:50 PM 59.0 °F 53.6 °F 82% 30.04 in - SSE 1.2 mph - N/A   Clear
11:20 PM 59.0 °F 53.6 °F 82% 30.04 in - SSE 1.2 mph - N/A   Clear